CAPE
2056 1947 1779 1481 1411 1137 1254 1172 995 826 843 915 943 851 955 1049 883 984 895 88 146 254 414 405 243 99 1 7 38 40 33 26 22 20 21 32 44 35 28 25 24 25 22
1948 1964 1707 1584 1344 1250 1231 1237 1124 768 675 646 835 867 770 767 786 808 883 724 100 171 279 242 194 183 40 7 38 37 48 47 30 19 28 36 37 35 28 28 28 18 14
1618 1947 1840 1746 1356 1337 1360 1381 1036 912 819 672 675 828 809 826 816 755 779 624 297 115 116 127 159 169 145 13 25 45 59 56 45 36 40 35 35 32 28 29 17 21 17
1709 1610 1417 1368 1620 1335 1128 1310 1084 966 933 720 613 600 567 565 598 646 793 734 706 341 75 41 109 117 158 102 20 26 32 58 51 52 49 47 39 31 27 28 27 26 5
2084 1644 1339 1343 1810 1353 881 1149 1054 1097 882 771 656 581 499 454 386 270 434 671 665 630 400 58 32 5 58 101 115 22 32 30 36 41 36 33 26 27 32 31 34 27 19
2287 1891 1469 1528 1258 1480 864 784 669 1080 952 907 458 417 468 358 394 433 407 357 487 515 477 333 78 52 17 47 144 87 36 28 37 39 37 30 30 24 30 37 31 25 22
2406 1987 1814 1688 1101 1099 692 649 755 801 967 919 664 426 294 188 76 124 242 398 255 396 340 491 349 86 7 20 102 207 45 32 32 50 46 49 41 33 30 35 33 32 14
1746 1876 1661 1628 1477 1165 952 926 768 878 776 777 590 325 351 351 96 220 150 187 363 383 240 292 206 85 20 31 98 125 140 89 46 55 75 57 43 34 30 28 33 39 24
1442 1718 1735 1548 1464 1080 872 745 576 881 562 422 510 635 437 111 27 158 261 260 370 458 343 241 137 86 22 18 45 21 23 33 64 100 89 60 58 52 33 30 31 32 33
1634 1538 1571 1310 1211 1043 984 720 682 1143 774 308 345 617 572 187 91 74 7 223 154 237 322 224 162 41 104 13 8 18 15 16 21 54 90 61 73 63 44 34 38 37 37
1747 1544 1432 1460 1327 1045 981 905 542 572 582 682 489 328 478 484 304 184 38 42 24 118 351 252 205 267 109 15 66 65 5 0 3 20 57 65 75 70 55 48 42 47 45
1315 1448 1768 1452 1273 984 862 916 733 604 597 656 573 571 545 382 371 225 94 32 54 19 92 288 302 153 159 29 9 9 8 0 0 0 14 39 65 60 54 55 44 45 45
1322 1243 1639 1546 1336 1234 976 946 772 885 994 1056 1118 1196 844 595 167 62 30 44 125 96 53 45 108 28 23 35 6 6 5 5 0 0 0 4 20 35 41 47 45 50 45
1705 1660 1462 1814 1489 1264 1352 1620 1477 1429 1337 1464 886 837 624 382 216 126 89 220 109 12 10 8 10 1 17 12 13 4 4 12 0 0 0 0 0 0 12 14 22 36 39
1475 1625 1459 1544 1244 963 1000 1452 1477 920 1107 1208 1455 1248 663 509 280 385 554 214 73 44 3 2 1 7 5 40 6 2 2 0 1 0 0 0 0 0 0 0 0 8 18
1404 1606 1427 1403 1318 1005 843 697 913 586 746 1181 849 716 488 210 179 367 468 249 93 52 33 7 0 7 7 7 8 8 7 29 6 0 0 0 0 1 0 0 0 0 0
906 795 874 1165 1089 834 697 515 359 423 663 1093 920 507 424 241 106 262 189 215 67 27 12 6 4 2 2 9 4 10 5 13 40 7 0 0 2 0 0 0 0 0 0
575 517 552 661 626 462 523 583 597 383 529 896 817 431 249 111 60 121 150 85 65 38 15 0 0 2 5 3 21 10 20 7 101 48 16 18 27 22 13 1 2 2 1
41 194 400 407 277 219 232 177 233 850 439 592 770 576 248 113 28 68 74 48 142 49 2 10 3 1 0 1 1 1 4 2 30 37 50 56 50 51 60 59 30 23 15
172 203 194 154 61 269 137 347 306 174 547 581 261 379 211 118 179 60 48 126 83 6 0 5 19 13 1 5 5 2 0 7 0 6 31 64 60 56 59 58 37 34 32
147 173 45 61 204 21 33 105 374 436 287 367 267 350 253 124 135 90 109 64 18 8 10 11 2 14 1 3 0 0 0 3 3 2 0 48 67 68 59 70 57 53 59
16 10 8 7 21 7 29 49 145 160 170 123 108 63 44 7 0 35 26 6 3 99 95 0 5 5 1 4 1 0 0 0 0 0 0 44 59 58 47 21 18 31 42
4 12 9 6 0 8 16 49 73 65 76 81 69 46 69 0 0 10 24 17 14 8 16 15 1 9 0 0 1 0 0 0 0 0 0 3 48 41 25 12 10 7 4
3 6 7 3 4 0 2 9 16 39 51 11 31 37 28 5 1 1 29 29 9 4 21 47 8 8 9 2 2 1 0 0 0 0 0 0 0 0 1 2 4 4 2
0 0 1 1 0 0 3 3 1 2 6 7 7 15 10 7 4 33 29 54 82 8 4 12 30 3 2 1 1 3 0 0 0 0 0 0 0 0 0 0 2 4 7
0 0 0 0 0 0 0 0 0 0 0 0 4 3 0 0 15 0 8 0 53 20 4 13 35 35 6 8 4 3 0 0 0 0 0 0 0 0 0 0 0 2 3
CIN
0 0 0 0 0 -1 0 0 0 -2 -1 0 0 0 0 0 0 0 0 -39 -31 -27 -7 -3 0 -4 0 -2 -2 -6 -5 -8 -5 -9 -9 -3 -5 -5 -2 -1 -3 -1 -1
0 0 0 0 0 0 0 0 0 -1 -1 -1 0 0 0 0 0 0 0 -6 -39 -33 -11 -3 -1 0 -15 0 -2 -4 -3 -4 -4 -6 -5 -4 -5 -4 -4 -3 -2 -1 0
-16 0 0 0 0 0 0 0 0 0 0 0 0 0 0 0 0 0 0 0 -15 -38 -32 -38 -4 -1 0 -4 -1 -3 -3 -3 -1 -4 -2 -4 -3 -5 -4 -3 0 0 -1
-29 -4 -2 -4 0 -3 -10 0 0 0 0 0 0 0 0 0 0 0 0 0 0 -1 -32 -50 -7 0 -1 0 -2 -2 -2 -2 -2 -2 -2 -1 -2 -3 -5 -5 -3 -2 0
-20 -28 -24 -8 0 -2 -17 0 0 0 0 0 0 0 0 0 -2 0 0 0 0 0 0 -23 -10 0 -3 -1 -2 0 0 -4 -2 -2 -4 -3 -3 -3 -4 -4 -3 -2 0
-20 -24 -34 -13 -12 0 -31 -22 -22 0 0 0 0 0 0 0 -1 0 0 -1 0 0 0 0 -3 -3 -6 -3 -1 0 0 -2 0 0 -2 -6 -4 -4 -4 -3 -1 -1 -1
-20 -33 -30 -20 -57 -41 -97 -51 -12 0 0 0 0 0 -3 -9 -46 -31 -3 0 -1 0 0 0 0 -1 -2 -4 -4 0 0 0 0 0 0 -1 -3 -7 -4 -4 -4 -1 -3
-77 -51 -68 -55 -41 -49 -56 -55 -34 -6 -6 0 0 -1 0 -1 -45 -7 -11 -4 0 0 -1 0 0 -3 -4 0 -3 -6 -2 -12 0 0 -29 -1 -6 -5 -5 -2 -3 -2 -3
-116 -63 -63 -70 -52 -72 -89 -88 -93 -19 -28 -28 -6 0 0 -25 -23 -28 -1 0 0 0 0 0 0 -1 0 -2 -3 -20 -48 -65 -12 -15 -62 -3 -2 -2 -6 -6 -2 -2 -2
-90 -85 -74 -104 -112 -102 -78 -113 -84 -6 -8 -56 -7 -4 -1 -17 -23 -52 0 -2 -1 -1 0 0 -2 -7 0 -17 -3 -20 -64 -74 -7 -29 -43 -4 -5 -2 -6 -6 -6 -4 -2
-95 -104 -93 -81 -96 -132 -110 -94 -123 -78 -45 -6 -18 -28 -3 0 -6 -12 -29 -98 -1 -1 0 0 0 0 -2 -1 -3 -2 -41 0 -21 -62 -11 -6 -2 -6 -9 -6 -6 -3 -1
-156 -116 -61 -95 -115 -133 -123 -101 -94 -78 -48 -12 -13 -9 -6 -3 -2 -12 -26 -23 -14 0 -5 0 0 0 -1 -10 -2 -3 -36 0 0 0 -14 -14 -10 -9 -8 -8 -7 -4 -2
-147 -160 -69 -76 -114 -123 -113 -95 -95 -48 -9 0 0 0 0 -3 -21 -39 -42 0 -17 -17 -3 -8 -6 -24 -23 -3 -1 0 -44 -76 0 0 0 -17 -26 -15 -15 -14 -11 -7 -5
-99 -88 -80 -27 -58 -69 -51 -16 -19 -17 0 0 -1 -2 -8 -21 -19 -30 -36 -7 -21 -3 0 0 -11 -7 -47 -18 -4 -4 0 -75 0 0 0 0 0 -2 -15 -14 -20 -18 -13
-82 -58 -48 -40 -80 -109 -90 -13 -6 -60 -18 -1 0 0 -8 -14 -22 -6 0 -6 -8 0 0 0 0 0 -16 -13 -14 0 0 0 -67 0 0 0 0 0 0 0 0 -18 -16
-46 -36 -26 -31 -55 -69 -77 -68 -29 -67 -45 -1 -4 -2 -11 -31 -26 -6 0 -5 -17 0 0 0 0 -1 -2 0 0 0 0 -11 -70 0 0 0 0 -4 0 0 0 0 0
-50 -70 -53 -39 -44 -55 -77 -66 -44 -52 -42 -7 -1 -7 -13 -11 -23 -8 -13 -13 -43 0 0 0 -3 -1 0 0 0 0 0 -1 -7 -53 0 -1 -26 0 0 0 0 0 -5
-67 -74 -63 -61 -69 -96 -78 -46 -50 -52 -41 -18 -14 -14 -21 -16 -34 -4 -21 -61 -30 0 0 0 0 -1 -5 0 0 -1 0 0 0 -3 -32 -1 -2 -3 -58 -13 -65 -2 -63
-73 -87 -51 -53 -66 -80 -58 -52 -47 -12 -25 -15 -5 -7 -24 -10 -19 -11 -22 -71 -20 -20 0 0 0 -2 0 0 0 0 0 0 -10 -1 -19 -30 -8 -9 -19 -26 -28 -49 -29
-71 -62 -68 -72 -74 -19 -38 -8 -14 -25 -3 -1 -12 -4 -9 -6 -7 -2 -23 -32 -44 0 0 0 0 -2 0 0 0 0 0 0 0 -1 -7 -2 -11 -8 -4 -11 -12 -17 -13
-32 -35 -77 -64 -23 -54 -51 -28 0 -1 -4 0 -1 0 0 -1 -9 0 -18 -56 -104 -12 -4 0 -1 0 -2 -1 0 0 0 0 0 0 0 -6 -13 -11 -3 -3 -7 -4 -9
-43 -66 -57 -29 -37 -2 -12 -3 -3 0 -7 0 0 0 0 -6 0 0 -9 0 -7 -2 0 0 -6 0 -1 -3 -3 0 0 0 0 0 0 0 -2 -6 -3 -3 -18 -20 -20
-2 0 0 -2 0 -4 -3 -2 0 0 0 0 0 0 0 -3 0 -2 -3 -43 -48 -60 -32 -18 0 -1 0 -2 -1 0 0 0 0 0 0 0 0 0 0 0 -13 0 0
-1 -4 -1 -7 0 0 0 -1 -2 0 0 -2 -1 0 -7 -3 0 0 -1 -1 -22 -44 -29 -4 -3 -6 -1 0 -3 0 0 0 0 0 0 0 0 0 0 0 0 0 0
0 0 0 -1 0 0 0 -1 -5 0 0 -3 0 0 -1 -6 0 0 0 0 0 0 -25 -3 -8 -3 -3 -1 -5 0 0 0 0 0 0 0 0 0 0 0 0 -1 0
0 0 0 0 0 0 0 0 0 0 0 0 0 0 0 0 0 0 -1 0 -7 0 0 0 -6 -10 -1 -2 0 0 0 -1 0 0 0 0 0 0 0 0 -1 0 0
Wind_Speed
14 16 15 17 15 16 15 13 10 10 8 9 10 11 13 14 14 16 18 nan 22 25 27 20 25 nan nan nan nan nan nan nan nan nan nan nan nan nan nan nan nan nan nan
16 16 16 16 16 15 15 13 10 12 9 8 9 11 12 13 15 17 18 23 22 20 28 23 17 26 nan nan nan nan nan nan nan nan nan nan nan nan nan nan nan nan nan
20 15 17 15 17 16 16 13 12 11 12 9 9 10 11 13 13 14 16 17 22 21 20 26 21 20 25 nan nan nan nan nan nan nan nan nan nan nan nan nan nan nan nan
21 18 18 18 19 21 19 17 14 14 12 12 11 10 11 13 14 13 13 15 18 23 nan nan 36 26 24 26 nan nan nan nan nan nan nan nan nan nan nan nan nan nan nan
23 22 19 20 23 24 22 19 17 14 15 14 13 11 11 12 14 12 11 14 15 20 25 nan nan nan nan 18 27 nan nan nan nan nan nan nan nan nan nan nan nan nan nan
23 22 22 23 25 24 26 24 21 16 15 15 14 13 12 9 11 14 14 10 15 17 23 28 nan nan nan nan 24 nan nan nan nan nan nan nan nan nan nan nan nan nan nan
23 21 24 25 25 24 27 28 24 19 19 17 20 17 14 12 nan 15 17 18 15 16 20 26 27 nan nan nan 17 26 nan nan nan nan nan nan nan nan nan nan nan nan nan
24 24 26 26 24 25 27 29 27 26 22 23 22 19 16 16 nan 15 18 20 19 18 18 22 26 nan nan nan nan 21 28 nan nan nan nan nan nan nan nan nan nan nan nan
26 26 29 30 27 26 28 29 31 29 27 26 23 21 20 16 nan 22 17 20 19 19 20 21 24 nan nan nan nan nan nan nan nan 30 nan nan nan nan nan nan nan nan nan
27 27 27 31 32 29 26 29 32 30 29 30 27 20 16 15 nan nan nan 19 17 22 22 28 28 nan 25 nan nan nan nan nan nan nan nan nan nan nan nan nan nan nan nan
29 30 28 28 29 29 28 31 33 33 33 31 29 29 21 21 17 15 nan nan nan 20 26 26 31 30 27 nan nan nan nan nan nan nan nan nan nan nan nan nan nan nan nan
40 34 30 29 30 29 27 36 35 32 32 31 28 26 27 27 22 21 nan nan nan nan nan 29 28 30 30 nan nan nan nan nan nan nan nan nan nan nan nan nan nan nan nan
32 29 30 32 33 35 33 40 36 31 30 30 26 26 26 26 28 nan nan nan 18 nan nan nan 19 nan nan nan nan nan nan nan nan nan nan nan nan nan nan nan nan nan nan
35 29 30 31 34 40 39 39 38 36 31 30 26 29 29 29 29 29 nan 23 21 nan nan nan nan nan nan nan nan nan nan nan nan nan nan nan nan nan nan nan nan nan nan
35 33 37 35 34 37 38 37 38 39 40 33 30 31 30 31 30 28 26 28 nan nan nan nan nan nan nan nan nan nan nan nan nan nan nan nan nan nan nan nan nan nan nan
39 41 40 39 38 39 41 38 36 36 39 38 36 33 32 33 31 32 31 33 nan nan nan nan nan nan nan nan nan nan nan nan nan nan nan nan nan nan nan nan nan nan nan
45 40 41 42 39 41 44 43 37 38 34 35 35 33 31 33 36 36 35 33 nan nan nan nan nan nan nan nan nan nan nan nan nan nan nan nan nan nan nan nan nan nan nan
51 51 41 39 44 46 48 45 41 40 40 38 32 32 35 40 nan 43 43 nan nan nan nan nan nan nan nan nan nan nan nan nan 33 nan nan nan nan nan nan nan nan nan nan
nan 59 57 57 46 47 43 44 44 42 41 35 32 36 36 41 nan nan nan nan 35 nan nan nan nan nan nan nan nan nan nan nan nan nan nan nan nan nan nan nan nan nan nan
58 58 60 60 nan 57 55 53 51 45 44 41 41 41 38 42 45 nan nan 41 nan nan nan nan nan nan nan nan nan nan nan nan nan nan nan nan nan nan nan nan nan nan nan
61 63 nan nan 63 nan nan 48 46 47 47 46 44 45 42 38 43 nan 45 nan nan nan nan nan nan nan nan nan nan nan nan nan nan nan nan nan nan nan nan nan nan nan nan
nan nan nan nan nan nan nan nan 52 56 59 58 52 nan nan nan nan nan nan nan nan nan nan nan nan nan nan nan nan nan nan nan nan nan nan nan nan nan nan nan nan nan nan
nan nan nan nan nan nan nan nan nan nan nan nan nan nan nan nan nan nan nan nan nan nan nan nan nan nan nan nan nan nan nan nan nan nan nan nan nan nan nan nan nan nan nan
nan nan nan nan nan nan nan nan nan nan nan nan nan nan nan nan nan nan nan nan nan nan nan nan nan nan nan nan nan nan nan nan nan nan nan nan nan nan nan nan nan nan nan
nan nan nan nan nan nan nan nan nan nan nan nan nan nan nan nan nan nan nan nan nan nan nan nan nan nan nan nan nan nan nan nan nan nan nan nan nan nan nan nan nan nan nan
nan nan nan nan nan nan nan nan nan nan nan nan nan nan nan nan nan nan nan nan nan nan nan nan nan nan nan nan nan nan nan nan nan nan nan nan nan nan nan nan nan nan nan
Wind_Direction
281 288 289 286 293 302 308 307 309 310 326 340 341 342 340 327 316 304 302 nan 311 320 316 314 278 nan nan nan nan nan nan nan nan nan nan nan nan nan nan nan nan nan nan
273 282 283 289 291 297 301 301 305 304 303 315 331 337 336 323 319 311 300 305 308 306 307 299 296 267 nan nan nan nan nan nan nan nan nan nan nan nan nan nan nan nan nan
277 280 273 281 290 287 290 292 297 298 294 296 310 319 327 327 326 317 301 300 302 301 287 286 306 283 275 nan nan nan nan nan nan nan nan nan nan nan nan nan nan nan nan
273 269 275 278 280 276 286 287 289 294 295 296 295 307 316 316 327 320 307 301 298 292 nan nan 279 284 302 261 nan nan nan nan nan nan nan nan nan nan nan nan nan nan nan
265 264 264 276 278 276 281 282 281 292 298 299 298 302 300 313 320 322 315 302 301 288 281 nan nan nan nan 292 266 nan nan nan nan nan nan nan nan nan nan nan nan nan nan
264 263 260 268 273 276 282 279 289 289 289 299 301 297 287 294 298 307 317 292 299 297 287 288 nan nan nan nan 293 nan nan nan nan nan nan nan nan nan nan nan nan nan nan
265 265 260 266 274 280 282 288 284 290 287 288 285 290 288 295 nan 300 313 304 305 291 282 288 283 nan nan nan 292 279 nan nan nan nan nan nan nan nan nan nan nan nan nan
268 269 267 268 275 276 282 288 289 279 285 286 288 289 287 289 nan 306 309 313 312 306 300 288 291 nan nan nan nan 301 307 nan nan nan nan nan nan nan nan nan nan nan nan
262 267 272 272 273 270 275 287 290 291 285 286 297 290 290 288 nan 295 318 316 308 295 294 292 293 nan nan nan nan nan nan nan nan 252 nan nan nan nan nan nan nan nan nan
262 266 270 273 277 275 286 285 286 284 283 284 284 294 294 274 nan nan nan 303 301 298 300 290 283 nan 294 nan nan nan nan nan nan nan nan nan nan nan nan nan nan nan nan
249 258 266 272 277 282 289 288 283 284 278 282 288 284 298 296 296 278 nan nan nan 291 292 299 296 284 296 nan nan nan nan nan nan nan nan nan nan nan nan nan nan nan nan
250 247 260 266 271 279 284 277 277 286 285 282 281 287 290 291 295 290 nan nan nan nan nan 294 298 277 283 nan nan nan nan nan nan nan nan nan nan nan nan nan nan nan nan
255 253 262 263 267 273 272 270 277 279 284 285 292 284 285 289 283 nan nan nan 290 nan nan nan 274 nan nan nan nan nan nan nan nan nan nan nan nan nan nan nan nan nan nan
257 262 263 262 260 260 264 275 277 276 273 275 290 286 281 285 286 287 nan 280 279 nan nan nan nan nan nan nan nan nan nan nan nan nan nan nan nan nan nan nan nan nan nan
257 256 263 264 262 262 270 278 272 272 271 271 279 284 282 279 283 286 285 279 nan nan nan nan nan nan nan nan nan nan nan nan nan nan nan nan nan nan nan nan nan nan nan
240 256 262 262 262 262 261 260 265 268 265 263 267 277 279 277 280 282 284 282 nan nan nan nan nan nan nan nan nan nan nan nan nan nan nan nan nan nan nan nan nan nan nan
241 253 263 260 262 261 259 261 262 265 277 271 268 274 280 280 280 282 282 283 nan nan nan nan nan nan nan nan nan nan nan nan nan nan nan nan nan nan nan nan nan nan nan
242 241 259 267 262 263 258 262 267 265 270 276 272 272 282 280 nan 283 275 nan nan nan nan nan nan nan nan nan nan nan nan nan 255 nan nan nan nan nan nan nan nan nan nan
nan 245 253 252 256 262 261 260 260 267 272 280 276 281 284 283 nan nan nan nan 273 nan nan nan nan nan nan nan nan nan nan nan nan nan nan nan nan nan nan nan nan nan nan
243 245 246 249 nan 251 249 249 253 265 272 275 278 277 278 284 285 nan nan 286 nan nan nan nan nan nan nan nan nan nan nan nan nan nan nan nan nan nan nan nan nan nan nan
242 243 nan nan 246 nan nan 250 256 264 264 271 269 272 273 279 281 nan 277 nan nan nan nan nan nan nan nan nan nan nan nan nan nan nan nan nan nan nan nan nan nan nan nan
nan nan nan nan nan nan nan nan 250 261 257 256 260 nan nan nan nan nan nan nan nan nan nan nan nan nan nan nan nan nan nan nan nan nan nan nan nan nan nan nan nan nan nan
nan nan nan nan nan nan nan nan nan nan nan nan nan nan nan nan nan nan nan nan nan nan nan nan nan nan nan nan nan nan nan nan nan nan nan nan nan nan nan nan nan nan nan
nan nan nan nan nan nan nan nan nan nan nan nan nan nan nan nan nan nan nan nan nan nan nan nan nan nan nan nan nan nan nan nan nan nan nan nan nan nan nan nan nan nan nan
nan nan nan nan nan nan nan nan nan nan nan nan nan nan nan nan nan nan nan nan nan nan nan nan nan nan nan nan nan nan nan nan nan nan nan nan nan nan nan nan nan nan nan
nan nan nan nan nan nan nan nan nan nan nan nan nan nan nan nan nan nan nan nan nan nan nan nan nan nan nan nan nan nan nan nan nan nan nan nan nan nan nan nan nan nan nan